Regional Weather Roundup
Issued by NWS State College, PA

Home | Current Version | Previous Version | Text Only | Print | Product List | Glossary Off
Versions: 1 2 3 4 5 6 7 8 9 10 11 12 13 14 15 16 17 18 19 20 21 22 23 24 25 26 27 28 29 30 31 32 33 34 35 36 37 38 39 40 41 42 43 44 45 46 47 48 49 50

000
ASUS41 KCTP 211403
RWRCTP

REGIONAL WEATHER ROUNDUP
NATIONAL WEATHER SERVICE STATE COLLEGE PA
900 AM EST SUN DEC 21 2014

Note: "fair" indicates few or no clouds below 12,000 feet with no
significant weather and/or obstructions to visibility.

* = STATION THAT DOES NOT REPORT PRECIPITATION /E.G. RAIN...SNOW...ETC/
    THUNDER OR FOG.

PAZ002>004-007>009-013>016-020>023-029>032-211500-
WESTERN PENNSYLVANIA

CITY           SKY/WX    TMP DP  RH WIND       PRES   REMARKS
ERIE           CLOUDY    31  24  75 S6        30.32S
MEADVILLE      CLOUDY    28  23  81 CALM      30.28R HAZE
FRANKLIN*      CLOUDY    27  21  80 CALM      30.30R
NEW CASTLE       N/A     28  23  81 CALM      30.32F
BEAVER COUNTY  NOT AVBL
BUTLER*        CLOUDY    27  23  86 CALM      30.32R
PITTSBURGH INT CLOUDY    29  21  72 CALM      30.30F
PITTSBURGH     CLOUDY    29  18  63 CALM      30.30S
INDIANA*       CLOUDY    27  23  86 CALM      30.33S
LATROBE        CLOUDY    28  25  86 CALM      30.33S
WASHINGTON CO* NOT AVBL
$$

PAZ004>006-010>012-017>019-024>028-033>037-041-042-045-046-049>053-211500-
CENTRAL PENNSYLVANIA

CITY           SKY/WX    TMP DP  RH WIND       PRES   REMARKS
BRADFORD       CLOUDY    24  20  84 W5        30.24S
DUBOIS         CLOUDY    26  22  84 CALM      30.25S
CLEARFIELD     CLOUDY    27  20  75 N5        30.28R
JOHNSTOWN      CLOUDY    24  19  81 NW6       30.23R
ALTOONA        CLOUDY    26  24  92 CALM      30.29R FOG
STATE COLLEGE  CLOUDY    28  21  74 NW5       30.30R
WILLIAMSPORT   CLOUDY    31  20  63 NW5       30.33R
SELINSGROVE    CLOUDY    32  22  66 NW6       30.33R
FT INDIANTOWN  CLOUDY    30  22  71 VRB5      30.33R
CAPITAL CITY   CLOUDY    28  22  78 W3        30.35R
HARRISBURG     CLOUDY    29  22  75 NW8       30.34R
YORK           SUNNY     29  24  82 CALM      30.33R
$$

PAZ038>040-043-044-047-048-054-055-060>062-067>071-211500-
EASTERN PENNSYLVANIA

CITY           SKY/WX    TMP DP  RH WIND       PRES   REMARKS
SCRANTON       CLOUDY    29  20  69 N6        30.29R
MOUNT POCONO   CLOUDY    25  19  78 NW7       30.21S
ALLENTOWN      CLOUDY    32  20  61 NW5       30.32R
QUAKERTOWN*    PTSUNNY   32  23  69 W3        30.32R
READING        MOSUNNY   31  23  72 NW5       30.32R
LANCASTER      SUNNY     28  23  81 W7        30.33R
COATESVILLE    SUNNY     28  27  93 W3        30.31R FOG
POTTSTOWN      CLOUDY    31  24  75 CALM      30.34R
BLUE BELL      SUNNY     34  23  64 CALM      30.32R
DOYLESTOWN     SUNNY     31  22  69 NW5       30.31R
WILLOW GROVE   NOT AVBL
NORTH PHILA    MOSUNNY   35  21  56 NW5       30.35R
PHILADELPHIA   MOSUNNY   34  22  61 NW5       30.35R
$$


USA.gov is the U.S. government's official web portal to all federal, state and local government web resources and services.